Date String (YYYY-MM-DD hh:mm:ss) UTC,Instrument flags,Ambient pressure (hPa),Sample flow (lpm),Bypass flow (lpm),Sample temperature (°C),Ambient temperature (°C),ASC tube jacket temperature (°C),LED temperature (°C),Box temperature (°C),Sample RH (%),Span deviation,Mass concentration (μg/m³),Mass concentration (μg/m³),Mass concentration (μg/m³)
DateTimeUTC,F1_M11,P_M11,Q1_M11,Q2_M11,T1_M11,T2_M11,T3_M11,T4_M11,T5_M11,U1_M11,ZSPAN_M11,X0_M11,X2_M11,X1_M11
2023-02-22 12:00:00,,0807.7,5.01,0.00,22.5,21.6,00.0,31.3,24.2,07.9,0000.0,0006.93,0003.74,0003.25
2023-02-22 12:01:00,,0807.7,4.99,0.00,22.6,22.5,00.0,31.3,24.5,07.8,0000.0,0006.68,0003.73,0003.25
2023-02-22 12:02:00,,0807.7,5.01,0.00,22.7,23.2,00.0,31.3,24.6,07.7,0000.0,0006.80,0003.74,0003.26
2023-02-22 12:03:00,,0807.7,5.02,0.00,22.8,22.8,00.0,31.4,24.6,07.7,0000.0,0006.93,0003.72,0003.25
2023-02-22 12:04:00,,0807.7,5.00,0.00,22.7,22.2,00.0,31.4,24.4,07.7,0000.0,0006.89,0003.71,0003.25
2023-02-22 12:05:00,,0807.9,4.99,0.00,22.7,21.7,00.0,31.4,24.2,07.6,0000.0,0007.01,0003.69,0003.24
2023-02-22 12:06:00,,0808.0,5.00,0.00,22.6,21.2,00.0,31.4,24.1,07.6,0000.0,0006.89,0003.66,0003.23
2023-02-22 12:07:00,,0807.9,5.00,0.00,22.6,20.9,00.0,31.4,24.0,07.7,0000.0,0006.24,0003.60,0003.23
2023-02-22 12:08:00,,0807.8,5.01,0.00,22.5,20.7,00.0,31.4,23.8,07.7,0000.0,0006.20,0003.56,0003.22
2023-02-22 12:09:00,,0807.9,5.02,0.00,22.5,21.1,00.0,31.4,24.0,07.7,0000.0,0006.20,0003.54,0003.22
2023-02-22 12:10:00,,0807.7,5.01,0.00,22.6,22.1,00.0,31.3,24.3,07.7,0000.0,0006.27,0003.55,0003.21
2023-02-22 12:11:00,,0807.7,5.00,0.00,22.7,23.0,00.0,31.3,24.6,07.6,0000.0,0006.22,0003.54,0003.20
2023-02-22 12:12:00,,0808.0,5.03,0.00,22.8,23.2,00.0,31.4,24.7,07.6,0000.0,0006.20,0003.52,0003.19
2023-02-22 12:13:00,,0807.8,4.99,0.00,22.8,22.6,00.0,31.4,24.6,07.6,0000.0,0005.87,0003.47,0003.17
2023-02-22 12:14:00,,0807.8,5.00,0.00,22.7,22.1,00.0,31.4,24.4,07.6,0000.0,0005.63,0003.45,0003.16
2023-02-22 12:15:00,,0807.8,5.01,0.00,22.7,21.6,00.0,31.4,24.3,07.6,0000.0,0005.73,0003.46,0003.14
2023-02-22 12:16:00,,0807.8,5.00,0.00,22.6,21.2,00.0,31.4,24.1,07.6,0000.0,0005.53,0003.45,0003.14
2023-02-22 12:17:00,,0807.8,5.00,0.00,22.6,20.8,00.0,31.4,24.0,07.6,0000.0,0005.34,0003.42,0003.13
2023-02-22 12:18:00,,0807.8,5.00,0.00,22.5,20.7,00.0,31.4,24.0,07.5,0000.0,0005.34,0003.42,0003.11
2023-02-22 12:19:00,,0807.9,4.96,0.00,22.5,21.5,00.0,31.3,24.2,07.5,0000.0,0005.16,0003.41,0003.08
2023-02-22 12:20:00,,0807.8,4.98,0.00,22.6,22.4,00.0,31.3,24.5,07.4,0000.0,0005.19,0003.37,0003.04
2023-02-22 12:21:00,,0807.8,4.99,0.00,22.8,23.2,00.0,31.4,24.7,07.4,0000.0,0005.22,0003.35,0003.02
2023-02-22 12:22:00,,0807.8,5.00,0.00,22.8,23.0,00.0,31.4,24.7,07.3,0000.0,0006.32,0003.32,0002.99
2023-02-22 12:23:00,,0807.8,5.00,0.00,22.8,22.4,00.0,31.4,24.5,07.3,0000.0,0006.25,0003.30,0002.97
2023-02-22 12:24:00,,0807.8,4.99,0.00,22.7,21.9,00.0,31.4,24.4,07.3,0000.0,0006.40,0003.31,0002.95
2023-02-22 12:25:00,,0807.8,4.99,0.00,22.7,21.4,00.0,31.4,24.2,07.3,0000.0,0006.61,0003.31,0002.94
2023-02-22 12:26:00,,0807.8,5.00,0.00,22.6,21.1,00.0,31.4,24.1,07.3,0000.0,0006.69,0003.29,0002.90
2023-02-22 12:27:00,,0807.9,5.00,0.00,22.6,20.8,00.0,31.4,24.0,07.3,0000.0,0006.80,0003.27,0002.87
2023-02-22 12:28:00,,0808.0,5.01,0.00,22.5,20.9,00.0,31.4,24.0,07.3,0000.0,0006.84,0003.28,0002.86
2023-02-22 12:29:00,,0808.0,5.01,0.00,22.6,22.0,00.0,31.4,24.3,07.3,0000.0,0007.05,0003.30,0002.86
2023-02-22 12:30:00,,0808.1,5.00,0.00,22.7,22.9,00.0,31.4,24.6,07.2,0000.0,0007.31,0003.33,0002.87
2023-02-22 12:31:00,,0808.1,5.00,0.00,22.8,23.4,00.0,31.4,24.8,07.2,0000.0,0007.39,0003.34,0002.89
2023-02-22 12:32:00,,0808.0,4.98,0.00,22.8,22.8,00.0,31.4,24.6,07.2,0000.0,0007.49,0003.37,0002.88
2023-02-22 12:33:00,,0808.1,5.00,0.00,22.8,22.2,00.0,31.5,24.5,07.2,0000.0,0006.79,0003.42,0002.89
2023-02-22 12:34:00,,0808.1,5.00,0.00,22.8,21.7,00.0,31.5,24.3,07.2,0000.0,0006.62,0003.43,0002.90
2023-02-22 12:35:00,,0808.0,4.99,0.00,22.7,21.3,00.0,31.5,24.2,07.2,0000.0,0006.55,0003.42,0002.91
2023-02-22 12:36:00,,0808.1,5.01,0.00,22.6,21.0,00.0,31.4,24.1,07.2,0000.0,0006.47,0003.44,0002.92
2023-02-22 12:37:00,,0808.1,5.00,0.00,22.6,20.8,00.0,31.4,24.0,07.2,0000.0,0006.40,0003.46,0002.94
2023-02-22 12:38:00,,0808.3,5.02,0.00,22.6,21.4,00.0,31.4,24.2,07.2,0000.0,0006.21,0003.46,0002.93
2023-02-22 12:39:00,,0808.3,4.99,0.00,22.7,22.4,00.0,31.4,24.5,07.2,0000.0,0006.31,0003.49,0002.94
2023-02-22 12:40:00,,0808.4,5.02,0.00,22.8,23.0,00.0,31.4,24.7,07.1,0000.0,0006.10,0003.46,0002.92
2023-02-22 12:41:00,,0808.4,5.00,0.00,22.8,22.6,00.0,31.4,24.6,07.1,0000.0,0005.87,0003.43,0002.90
2023-02-22 12:42:00,,0808.5,4.99,0.00,22.8,22.1,00.0,31.5,24.5,07.1,0000.0,0005.59,0003.41,0002.87
2023-02-22 12:43:00,,0808.5,5.00,0.00,22.7,21.7,00.0,31.5,24.4,07.0,0000.0,0005.18,0003.37,0002.86
2023-02-22 12:44:00,,0808.5,4.99,0.00,22.7,21.3,00.0,31.5,24.2,07.0,0000.0,0005.05,0003.35,0002.85
2023-02-22 12:45:00,,0808.6,4.99,0.00,22.6,21.0,00.0,31.4,24.1,07.0,0000.0,0005.03,0003.34,0002.83
2023-02-22 12:46:00,,0808.6,5.02,0.00,22.6,21.0,00.0,31.4,24.1,07.0,0000.0,0005.02,0003.35,0002.83
2023-02-22 12:47:00,,0808.5,5.03,0.00,22.6,22.0,00.0,31.4,24.4,07.0,0000.0,0005.27,0003.32,0002.82
2023-02-22 12:48:00,,0808.5,5.00,0.00,22.8,22.9,00.0,31.4,24.6,06.9,0000.0,0006.36,0003.29,0002.81
2023-02-22 12:49:00,,0808.5,5.01,0.00,22.8,23.0,00.0,31.4,24.7,06.9,0000.0,0006.82,0003.28,0002.83
2023-02-22 12:50:00,,0808.6,4.99,0.00,22.8,22.4,00.0,31.5,24.5,06.8,0000.0,0006.77,0003.24,0002.80
2023-02-22 12:51:00,,0808.6,5.01,0.00,22.8,21.8,00.0,31.5,24.3,06.8,0000.0,0006.86,0003.26,0002.82
2023-02-22 12:52:00,,0808.6,4.99,0.00,22.7,21.4,00.0,31.5,24.2,06.8,0000.0,0006.87,0003.28,0002.85
2023-02-22 12:53:00,,0808.6,4.99,0.00,22.6,21.0,00.0,31.5,24.1,06.8,0000.0,0006.93,0003.30,0002.87
2023-02-22 12:54:00,,0808.7,5.01,0.00,22.6,21.0,00.0,31.4,24.1,06.8,0000.0,0006.92,0003.29,0002.87
2023-02-22 12:55:00,,0808.6,5.03,0.00,22.6,21.9,00.0,31.4,24.3,06.8,0000.0,0006.87,0003.28,0002.86
2023-02-22 12:56:00,,0808.6,4.97,0.00,22.7,22.7,00.0,31.4,24.5,06.7,0000.0,0006.86,0003.28,0002.87
2023-02-22 12:57:00,,0808.6,5.01,0.00,22.8,23.3,00.0,31.4,24.7,06.7,0000.0,0006.83,0003.27,0002.87
2023-02-22 12:58:00,,0808.5,5.00,0.00,22.9,22.8,00.0,31.5,24.7,06.7,0000.0,0006.39,0003.27,0002.87
2023-02-22 12:59:00,,0808.4,5.02,0.00,22.8,22.2,00.0,31.5,24.4,06.7,0000.0,0005.11,0003.26,0002.86
